Погода в Чжанъе

Китай     38°55′59″N   100°27′17″E
темп.,
°C
ветер,
м/с
пор.,
м/с
влажн.,
%
обл.,
%
осадки,
мм/ч
давл.,
гПа
погр.,
м
27 января, чт
чт2723:00−8вюв114616 0.0 103110
02:00−9ююз0148100 0.0 103010
05:00−9зсз1148100 0.0 103110
08:00−9сз1149100 0.0 103310
11:00−5зсз1235100 0.0 1034240
14:00−3ссз2228100 0.0 1031695
17:00−2ссз3327100 0.0 1031715
20:00−5ссз1134100 0.0 103311
28 января, пт
пт2823:00−5вюв1234100 0.0 103310
02:00−6ююв2234100 0.0 103110
05:00−6ююв1135100 0.0 103010
08:00−8з1139100 0.0 103210
11:00−3ююв22265 0.0 1031258
14:00+1юв23174 0.0 10251117
17:00+1юз121643 0.0 10231141
20:00−3с222632 0.0 102510
29 января, сб
сб2923:00−6юз11350 0.0 102610
02:00−6ююв22340 0.0 102410
05:00−7юв33410 0.0 102317
08:00−7юв33430 0.0 102213
11:00−3сз33300 0.0 1023299
14:00−1ссз55220 0.0 1020940
17:00−2ссз6726100 0.0 10221002
20:00−5ссз223872 0.0 102513
30 января, вс
вс3023:00−7зюз11452 0.0 102710
02:00−8зсз22505 0.0 102916
05:00−10сз22613 0.0 103222
08:00−11сз22732 0.0 103614
11:00−8сз23531 0.0 1037507
14:00−5сз45380 0.0 1034874
17:00−5ссз34350 0.0 1033801
20:00−8всв11450 0.0 103510
31 января, пн
пн3123:00−8ююв23465 0.0 103411
02:00−9юв33489 0.0 103117
05:00−9ююв2237100 0.0 102714
08:00−10ююз0132100 0.0 102610
11:00−4всв0114100 0.0 1025123
14:000ссз3210100 0.0 1021516
17:00−1сз5515100 0.0 1022478
20:00−7сз222886 0.0 102513